Time,TemperatureF,DewpointF,PressureIn,WindDirection,WindDirectionDegrees,WindSpeedMPH,WindSpeedGustMPH,Humidity,HourlyPrecipIn,Conditions,Clouds,dailyrainin,SoftwareType,DateUTC
2013-03-19 00:03:00,63.0,14.6,27.64,North,0,0.0,0.0,15,0.00,,CLR,0.00,VWS V14.01,2013-03-19 07:03:00,
2013-03-19 00:08:00,63.0,14.6,27.64,North,0,0.0,0.0,15,0.00,,CLR,0.00,VWS V14.01,2013-03-19 07:08:00,
2013-03-19 00:13:00,62.8,14.5,27.61,North,0,0.0,0.0,15,0.00,,CLR,0.00,VWS V14.01,2013-03-19 07:13:00,
2013-03-19 00:18:00,63.0,14.6,27.61,North,0,0.0,0.0,15,0.00,,CLR,0.00,VWS V14.01,2013-03-19 07:18:00,
2013-03-19 00:23:00,63.0,14.6,27.61,North,0,0.0,0.0,15,0.00,,CLR,0.00,VWS V14.01,2013-03-19 07:23:00,
2013-03-19 00:28:00,62.8,14.5,27.61,North,0,0.0,0.0,15,0.00,,CLR,0.00,VWS V14.01,2013-03-19 07:28:00,
2013-03-19 00:33:00,62.6,14.3,27.61,North,0,0.0,0.0,15,0.00,,CLR,0.00,VWS V14.01,2013-03-19 07:33:00,
2013-03-19 00:38:00,62.6,14.3,27.61,North,0,0.0,0.0,15,0.00,,CLR,0.00,VWS V14.01,2013-03-19 07:38:00,
2013-03-19 00:43:00,62.4,14.2,27.61,North,0,0.0,0.0,15,0.00,,CLR,0.00,VWS V14.01,2013-03-19 07:43:00,
2013-03-19 00:48:00,62.2,14.0,27.61,North,0,0.0,0.0,15,0.00,,CLR,0.00,VWS V14.01,2013-03-19 07:48:00,
2013-03-19 00:53:00,62.1,13.9,27.61,North,0,0.0,0.0,15,0.00,,CLR,0.00,VWS V14.01,2013-03-19 07:53:00,
2013-03-19 00:58:00,61.9,13.8,27.61,North,0,0.0,0.0,15,0.00,,CLR,0.00,VWS V14.01,2013-03-19 07:58:00,
2013-03-19 01:03:00,61.9,13.8,27.61,North,0,0.0,0.0,15,0.00,,CLR,0.00,VWS V14.01,2013-03-19 08:03:00,
2013-03-19 01:08:00,61.7,13.6,27.61,North,0,0.0,0.0,15,0.00,,CLR,0.00,VWS V14.01,2013-03-19 08:08:00,
2013-03-19 01:13:00,62.1,13.9,27.61,North,0,0.0,0.0,15,0.00,,CLR,0.00,VWS V14.01,2013-03-19 08:13:00,
2013-03-19 01:18:00,61.9,13.8,27.61,North,0,0.0,0.0,15,0.00,,CLR,0.00,VWS V14.01,2013-03-19 08:18:00,
2013-03-19 01:23:00,61.9,13.8,27.61,North,0,0.0,0.0,15,0.00,,CLR,0.00,VWS V14.01,2013-03-19 08:23:00,
2013-03-19 01:28:00,61.5,13.5,27.61,North,0,0.0,0.0,15,0.00,,CLR,0.00,VWS V14.01,2013-03-19 08:28:00,
2013-03-19 01:33:00,61.3,13.3,27.61,North,0,0.0,0.0,15,0.00,,CLR,0.00,VWS V14.01,2013-03-19 08:33:00,
2013-03-19 01:38:00,61.0,13.0,27.61,North,0,0.0,0.0,15,0.00,,CLR,0.00,VWS V14.01,2013-03-19 08:38:00,
2013-03-19 01:43:00,60.8,12.9,27.61,North,0,0.0,0.0,15,0.00,,CLR,0.00,VWS V14.01,2013-03-19 08:43:00,
2013-03-19 01:48:00,60.6,14.2,27.61,North,0,0.0,0.0,16,0.00,,CLR,0.00,VWS V14.01,2013-03-19 08:48:00,
2013-03-19 01:53:00,60.6,14.2,27.61,North,0,0.0,0.0,16,0.00,,CLR,0.00,VWS V14.01,2013-03-19 08:53:00,
2013-03-19 01:58:00,61.0,13.0,27.61,North,0,0.0,0.0,15,0.00,,CLR,0.00,VWS V14.01,2013-03-19 08:58:00,
2013-03-19 02:03:00,61.0,13.0,27.61,North,0,0.0,0.0,15,0.00,,CLR,0.00,VWS V14.01,2013-03-19 09:03:00,
2013-03-19 02:08:00,61.0,13.0,27.61,North,0,0.0,0.0,15,0.00,,CLR,0.00,VWS V14.01,2013-03-19 09:08:00,
2013-03-19 02:13:00,61.0,13.0,27.61,North,0,0.0,0.0,15,0.00,,CLR,0.00,VWS V14.01,2013-03-19 09:13:00,
2013-03-19 02:18:00,61.2,13.2,27.61,North,0,0.0,0.0,15,0.00,,CLR,0.00,VWS V14.01,2013-03-19 09:18:00,
2013-03-19 02:23:00,61.2,13.2,27.61,North,0,0.0,0.0,15,0.00,,CLR,0.00,VWS V14.01,2013-03-19 09:23:00,
2013-03-19 02:28:00,61.0,13.0,27.61,North,0,0.0,0.0,15,0.00,,CLR,0.00,VWS V14.01,2013-03-19 09:28:00,
2013-03-19 02:33:00,60.6,14.2,27.61,North,0,0.0,0.0,16,0.00,,CLR,0.00,VWS V14.01,2013-03-19 09:33:00,
2013-03-19 02:38:00,60.6,14.2,27.61,North,0,0.0,0.0,16,0.00,,CLR,0.00,VWS V14.01,2013-03-19 09:38:00,
2013-03-19 02:43:00,60.4,14.1,27.61,North,0,0.0,0.0,16,0.00,,CLR,0.00,VWS V14.01,2013-03-19 09:43:00,
2013-03-19 02:48:00,60.4,14.1,27.61,North,0,0.0,0.0,16,0.00,,CLR,0.00,VWS V14.01,2013-03-19 09:48:00,
2013-03-19 02:53:00,60.3,13.9,27.61,North,0,0.0,0.0,16,0.00,,CLR,0.00,VWS V14.01,2013-03-19 09:53:00,
2013-03-19 02:58:00,60.3,13.9,27.61,North,0,0.0,0.0,16,0.00,,CLR,0.00,VWS V14.01,2013-03-19 09:58:00,
2013-03-19 03:03:00,60.4,14.1,27.61,North,0,0.0,0.0,16,0.00,,CLR,0.00,VWS V14.01,2013-03-19 10:03:00,
2013-03-19 03:08:00,60.6,14.2,27.61,North,0,0.0,0.0,16,0.00,,CLR,0.00,VWS V14.01,2013-03-19 10:08:00,
2013-03-19 03:13:00,60.6,14.2,27.58,North,0,0.0,0.0,16,0.00,,CLR,0.00,VWS V14.01,2013-03-19 10:13:00,
2013-03-19 03:18:00,60.6,14.2,27.58,North,0,0.0,0.0,16,0.00,,CLR,0.00,VWS V14.01,2013-03-19 10:18:00,
2013-03-19 03:23:00,60.6,14.2,27.58,North,0,0.0,0.0,16,0.00,,CLR,0.00,VWS V14.01,2013-03-19 10:23:00,
2013-03-19 03:28:00,61.0,13.0,27.61,North,0,0.0,0.0,15,0.00,,CLR,0.00,VWS V14.01,2013-03-19 10:28:00,
2013-03-19 03:33:00,61.2,13.2,27.61,North,0,0.0,0.0,15,0.00,,CLR,0.00,VWS V14.01,2013-03-19 10:33:00,
2013-03-19 03:38:00,61.3,13.3,27.61,North,357,0.0,0.0,15,0.00,,CLR,0.00,VWS V14.01,2013-03-19 10:38:00,
2013-03-19 03:43:00,61.5,13.5,27.61,North,357,0.0,0.0,15,0.00,,CLR,0.00,VWS V14.01,2013-03-19 10:43:00,
2013-03-19 03:48:00,61.5,13.5,27.61,North,357,0.0,0.0,15,0.00,,CLR,0.00,VWS V14.01,2013-03-19 10:48:00,
2013-03-19 03:53:00,61.7,13.6,27.61,North,357,0.0,0.0,15,0.00,,CLR,0.00,VWS V14.01,2013-03-19 10:53:00,
2013-03-19 03:58:00,61.7,13.6,27.61,North,357,0.0,0.0,15,0.00,,CLR,0.00,VWS V14.01,2013-03-19 10:58:00,
2013-03-19 04:03:00,61.7,13.6,27.61,North,357,0.0,0.0,15,0.00,,CLR,0.00,VWS V14.01,2013-03-19 11:03:00,
2013-03-19 04:08:00,61.9,13.8,27.61,North,0,0.0,0.0,15,0.00,,CLR,0.00,VWS V14.01,2013-03-19 11:08:00,
2013-03-19 04:13:00,61.9,13.8,27.61,North,0,0.0,0.0,15,0.00,,CLR,0.00,VWS V14.01,2013-03-19 11:13:00,
2013-03-19 04:18:00,62.1,13.9,27.61,West,278,0.0,0.0,15,0.00,,CLR,0.00,VWS V14.01,2013-03-19 11:18:00,
2013-03-19 04:23:00,62.4,14.2,27.61,West,270,0.0,0.0,15,0.00,,CLR,0.00,VWS V14.01,2013-03-19 11:23:00,
2013-03-19 04:28:00,62.6,14.3,27.61,West,281,0.0,0.0,15,0.00,,CLR,0.00,VWS V14.01,2013-03-19 11:28:00,
2013-03-19 04:33:00,63.0,14.6,27.61,West,277,0.0,0.0,15,0.00,,CLR,0.00,VWS V14.01,2013-03-19 11:33:00,
2013-03-19 04:38:00,63.1,14.8,27.61,NW,304,0.0,0.0,15,0.00,,CLR,0.00,VWS V14.01,2013-03-19 11:38:00,
2013-03-19 04:43:00,63.5,15.1,27.61,West,277,0.0,0.0,15,0.00,,CLR,0.00,VWS V14.01,2013-03-19 11:43:00,
2013-03-19 04:48:00,63.5,15.1,27.61,NW,306,0.0,0.0,15,0.00,,CLR,0.00,VWS V14.01,2013-03-19 11:48:00,
2013-03-19 04:53:00,63.5,15.1,27.61,WNW,296,0.0,0.0,15,0.00,,CLR,0.00,VWS V14.01,2013-03-19 11:53:00,
2013-03-19 04:58:00,63.5,15.1,27.64,WNW,294,0.0,0.0,15,0.00,,CLR,0.00,VWS V14.01,2013-03-19 11:58:00,
2013-03-19 05:03:00,63.7,15.2,27.64,NW,310,0.0,0.0,15,0.00,,CLR,0.00,VWS V14.01,2013-03-19 12:03:00,
2013-03-19 05:08:00,63.9,15.3,27.64,WNW,286,0.0,0.0,15,0.00,,CLR,0.00,VWS V14.01,2013-03-19 12:08:00,
2013-03-19 05:13:00,64.0,15.5,27.61,WNW,301,0.0,0.0,15,0.00,,CLR,0.00,VWS V14.01,2013-03-19 12:13:00,
2013-03-19 05:18:00,64.2,15.6,27.61,NW,315,0.0,0.0,15,0.00,,CLR,0.00,VWS V14.01,2013-03-19 12:18:00,
2013-03-19 05:23:00,64.2,15.6,27.61,West,281,0.0,0.0,15,0.00,,CLR,0.00,VWS V14.01,2013-03-19 12:23:00,
2013-03-19 05:28:00,63.9,15.3,27.64,West,281,0.0,0.0,15,0.00,,CLR,0.00,VWS V14.01,2013-03-19 12:28:00,
2013-03-19 05:33:00,63.0,14.6,27.64,West,281,0.0,0.0,15,0.00,,CLR,0.00,VWS V14.01,2013-03-19 12:33:00,
2013-03-19 05:38:00,62.1,13.9,27.64,West,281,0.0,0.0,15,0.00,,CLR,0.00,VWS V14.01,2013-03-19 12:38:00,
2013-03-19 05:43:00,61.3,13.3,27.64,WNW,282,0.0,0.0,15,0.00,,CLR,0.00,VWS V14.01,2013-03-19 12:43:00,
2013-03-19 05:48:00,60.6,14.2,27.64,WNW,282,0.0,0.0,16,0.00,,CLR,0.00,VWS V14.01,2013-03-19 12:48:00,
2013-03-19 05:53:00,59.9,13.6,27.64,WNW,283,0.0,0.0,16,0.00,,CLR,0.00,VWS V14.01,2013-03-19 12:53:00,
2013-03-19 05:58:00,59.5,13.3,27.64,WNW,283,0.0,0.0,16,0.00,,CLR,0.00,VWS V14.01,2013-03-19 12:58:00,
2013-03-19 06:03:00,59.2,13.0,27.64,WNW,283,0.0,0.0,16,0.00,,CLR,0.00,VWS V14.01,2013-03-19 13:03:00,
2013-03-19 06:08:00,58.8,12.8,27.64,WNW,283,0.0,0.0,16,0.00,,CLR,0.00,VWS V14.01,2013-03-19 13:08:00,
2013-03-19 06:13:00,58.6,12.6,27.64,WNW,282,0.0,0.0,16,0.00,,CLR,0.00,VWS V14.01,2013-03-19 13:13:00,
2013-03-19 06:18:00,58.3,12.3,27.64,WNW,283,0.0,0.0,16,0.00,,CLR,0.00,VWS V14.01,2013-03-19 13:18:00,
2013-03-19 06:23:00,58.1,12.2,27.64,WNW,283,0.0,0.0,16,0.00,,CLR,0.00,VWS V14.01,2013-03-19 13:23:00,
2013-03-19 06:28:00,58.1,12.2,27.64,West,266,0.0,0.0,16,0.00,,CLR,0.00,VWS V14.01,2013-03-19 13:28:00,
2013-03-19 06:33:00,58.3,12.3,27.64,NE,54,0.0,0.0,16,0.00,,CLR,0.00,VWS V14.01,2013-03-19 13:33:00,
2013-03-19 06:39:00,58.1,12.2,27.64,NE,40,0.0,0.0,16,0.00,,CLR,0.00,VWS V14.01,2013-03-19 13:39:00,
2013-03-19 06:44:00,58.1,12.2,27.67,NE,40,0.0,0.0,16,0.00,,CLR,0.00,VWS V14.01,2013-03-19 13:44:00,
2013-03-19 06:49:00,58.1,12.2,27.67,NE,40,0.0,0.0,16,0.00,,CLR,0.00,VWS V14.01,2013-03-19 13:49:00,
2013-03-19 06:53:00,57.9,12.0,27.67,West,268,0.0,0.0,16,0.00,,CLR,0.00,VWS V14.01,2013-03-19 13:53:00,
2013-03-19 06:58:00,57.7,11.9,27.67,West,271,0.0,0.0,16,0.00,,CLR,0.00,VWS V14.01,2013-03-19 13:58:00,
2013-03-19 07:03:00,57.9,12.0,27.67,WSW,258,0.0,0.0,16,0.00,,CLR,0.00,VWS V14.01,2013-03-19 14:03:00,
2013-03-19 07:08:00,57.9,12.0,27.67,West,264,0.0,0.0,16,0.00,,CLR,0.00,VWS V14.01,2013-03-19 14:08:00,
2013-03-19 07:13:00,58.1,12.2,27.67,West,265,0.0,0.0,16,0.00,,CLR,0.00,VWS V14.01,2013-03-19 14:13:00,
2013-03-19 07:18:00,58.5,12.5,27.67,West,276,0.0,0.0,16,0.00,,CLR,0.00,VWS V14.01,2013-03-19 14:18:00,
2013-03-19 07:23:00,58.8,12.8,27.67,West,278,0.0,0.0,16,0.00,,CLR,0.00,VWS V14.01,2013-03-19 14:23:00,
2013-03-19 07:28:00,59.2,13.0,27.70,West,265,0.0,0.0,16,0.00,,CLR,0.00,VWS V14.01,2013-03-19 14:28:00,
2013-03-19 07:33:00,59.4,13.2,27.70,WSW,244,0.0,0.0,16,0.00,,CLR,0.00,VWS V14.01,2013-03-19 14:33:00,
2013-03-19 07:38:00,59.7,13.5,27.70,WSW,244,0.0,0.0,16,0.00,,CLR,0.00,VWS V14.01,2013-03-19 14:38:00,
2013-03-19 07:43:00,59.7,13.5,27.70,WSW,243,0.0,0.0,16,0.00,,CLR,0.00,VWS V14.01,2013-03-19 14:43:00,
2013-03-19 07:48:00,59.9,13.6,27.70,West,272,0.0,0.0,16,0.00,,CLR,0.00,VWS V14.01,2013-03-19 14:48:00,
2013-03-19 07:53:00,59.9,13.6,27.70,West,273,0.0,0.0,16,0.00,,CLR,0.00,VWS V14.01,2013-03-19 14:53:00,
2013-03-19 07:58:00,60.1,13.8,27.70,West,273,0.0,0.0,16,0.00,,CLR,0.00,VWS V14.01,2013-03-19 14:58:00,
2013-03-19 08:03:00,60.4,14.1,27.70,West,273,0.0,0.0,16,0.00,,CLR,0.00,VWS V14.01,2013-03-19 15:03:00,
2013-03-19 08:08:00,61.0,13.0,27.70,West,273,0.0,0.0,15,0.00,,CLR,0.00,VWS V14.01,2013-03-19 15:08:00,
2013-03-19 08:14:00,61.9,13.8,27.70,West,273,0.0,0.0,15,0.00,,CLR,0.00,VWS V14.01,2013-03-19 15:14:00,
2013-03-19 08:19:00,63.0,14.6,27.70,West,272,0.0,0.0,15,0.00,,CLR,0.00,VWS V14.01,2013-03-19 15:19:00,
2013-03-19 08:24:00,63.3,14.9,27.70,West,262,0.0,0.0,15,0.00,,CLR,0.00,VWS V14.01,2013-03-19 15:24:00,
2013-03-19 08:29:00,63.7,15.2,27.70,West,272,0.0,0.0,15,0.00,,CLR,0.00,VWS V14.01,2013-03-19 15:29:00,
2013-03-19 08:34:00,64.2,15.6,27.70,West,261,0.0,0.0,15,0.00,,CLR,0.00,VWS V14.01,2013-03-19 15:34:00,
2013-03-19 08:39:00,64.6,14.3,27.70,West,260,0.0,0.0,14,0.00,,CLR,0.00,VWS V14.01,2013-03-19 15:39:00,
2013-03-19 08:44:00,65.8,15.3,27.73,SSE,153,0.0,0.0,14,0.00,,CLR,0.00,VWS V14.01,2013-03-19 15:44:00,
2013-03-19 08:49:00,66.7,16.1,27.73,SW,220,0.0,0.0,14,0.00,,CLR,0.00,VWS V14.01,2013-03-19 15:49:00,
2013-03-19 08:54:00,66.6,15.9,27.73,SW,231,0.0,0.0,14,0.00,,CLR,0.00,VWS V14.01,2013-03-19 15:54:00,
2013-03-19 08:59:00,66.6,15.9,27.73,SW,231,0.0,0.0,14,0.00,,CLR,0.00,VWS V14.01,2013-03-19 15:59:00,
2013-03-19 09:04:00,67.3,16.5,27.73,SW,231,0.0,0.0,14,0.00,,CLR,0.00,VWS V14.01,2013-03-19 16:04:00,
2013-03-19 09:09:00,68.4,17.4,27.73,ENE,64,0.0,0.0,14,0.00,,CLR,0.00,VWS V14.01,2013-03-19 16:09:00,
2013-03-19 09:14:00,69.4,18.2,27.73,ENE,72,0.0,0.0,14,0.00,,CLR,0.00,VWS V14.01,2013-03-19 16:14:00,
2013-03-19 09:19:00,70.0,21.8,27.73,ESE,116,2.7,2.7,16,0.00,,CLR,0.00,VWS V14.01,2013-03-19 16:19:00,
2013-03-19 09:24:00,70.0,21.8,27.73,ESE,108,2.2,2.7,16,0.00,,CLR,0.00,VWS V14.01,2013-03-19 16:24:00,
2013-03-19 09:29:00,70.3,22.0,27.73,SE,130,0.0,0.0,16,0.00,,CLR,0.00,VWS V14.01,2013-03-19 16:29:00,
2013-03-19 09:34:00,70.9,22.5,27.73,SE,133,0.0,0.0,16,0.00,,CLR,0.00,VWS V14.01,2013-03-19 16:34:00,
2013-03-19 09:39:00,71.4,22.9,27.73,East,93,0.0,3.1,16,0.00,,CLR,0.00,VWS V14.01,2013-03-19 16:39:00,
2013-03-19 09:44:00,71.8,21.7,27.73,SE,137,0.0,0.0,15,0.00,,CLR,0.00,VWS V14.01,2013-03-19 16:44:00,
2013-03-19 09:49:00,72.5,22.3,27.73,SE,127,0.0,0.0,15,0.00,,CLR,0.00,VWS V14.01,2013-03-19 16:49:00,
2013-03-19 09:54:00,73.0,22.7,27.73,SSE,159,0.0,0.0,15,0.00,,CLR,0.00,VWS V14.01,2013-03-19 16:54:00,
2013-03-19 09:59:00,73.4,23.0,27.76,ESE,111,0.0,0.0,15,0.00,,CLR,0.00,VWS V14.01,2013-03-19 16:59:00,
2013-03-19 10:04:00,73.9,23.4,27.76,ESE,117,2.7,2.7,15,0.00,,CLR,0.00,VWS V14.01,2013-03-19 17:04:00,
2013-03-19 10:09:00,73.9,23.4,27.76,ESE,104,0.0,0.0,15,0.00,,CLR,0.00,VWS V14.01,2013-03-19 17:09:00,
2013-03-19 10:14:00,74.1,23.6,27.73,SE,133,0.0,0.0,15,0.00,,CLR,0.00,VWS V14.01,2013-03-19 17:14:00,
2013-03-19 10:19:00,74.5,23.8,27.73,East,81,0.0,0.0,15,0.00,,CLR,0.00,VWS V14.01,2013-03-19 17:19:00,
2013-03-19 10:24:00,74.8,24.1,27.73,East,86,0.0,0.0,15,0.00,,CLR,0.00,VWS V14.01,2013-03-19 17:24:00,
2013-03-19 10:29:00,75.0,24.3,27.73,East,86,0.0,0.0,15,0.00,,CLR,0.00,VWS V14.01,2013-03-19 17:29:00,
2013-03-19 10:34:00,75.2,22.8,27.73,North,357,0.0,0.0,14,0.00,,CLR,0.00,VWS V14.01,2013-03-19 17:34:00,
2013-03-19 10:39:00,74.7,24.0,27.73,NE,56,0.0,0.0,15,0.00,,CLR,0.00,VWS V14.01,2013-03-19 17:39:00,
2013-03-19 10:44:00,74.7,24.0,27.73,NE,53,0.0,0.0,15,0.00,,CLR,0.00,VWS V14.01,2013-03-19 17:44:00,
2013-03-19 10:49:00,74.8,24.1,27.73,NE,35,0.0,0.0,15,0.00,,CLR,0.00,VWS V14.01,2013-03-19 17:49:00,
2013-03-19 10:54:00,75.0,24.3,27.73,NW,317,0.0,0.0,15,0.00,,CLR,0.00,VWS V14.01,2013-03-19 17:54:00,
2013-03-19 10:59:00,74.7,24.0,27.76,NNW,339,0.0,0.0,15,0.00,,CLR,0.00,VWS V14.01,2013-03-19 17:59:00,
2013-03-19 11:04:00,74.5,23.8,27.76,WNW,283,0.0,3.1,15,0.00,,CLR,0.00,VWS V14.01,2013-03-19 18:04:00,
2013-03-19 11:09:00,74.5,23.8,27.76,SSW,206,0.0,0.0,15,0.00,,CLR,0.00,VWS V14.01,2013-03-19 18:09:00,
2013-03-19 11:14:00,74.1,23.6,27.76,WNW,299,0.0,0.0,15,0.00,,CLR,0.00,VWS V14.01,2013-03-19 18:14:00,
2013-03-19 11:19:00,74.3,23.7,27.76,NNE,16,0.0,0.0,15,0.00,,CLR,0.00,VWS V14.01,2013-03-19 18:19:00,
2013-03-19 11:24:00,75.0,24.3,27.76,NE,49,0.0,0.0,15,0.00,,CLR,0.00,VWS V14.01,2013-03-19 18:24:00,
2013-03-19 11:29:00,75.4,22.9,27.76,NNE,30,0.0,0.0,14,0.00,,CLR,0.00,VWS V14.01,2013-03-19 18:29:00,
2013-03-19 11:34:00,75.6,23.1,27.76,NE,51,0.0,0.0,14,0.00,,CLR,0.00,VWS V14.01,2013-03-19 18:34:00,
2013-03-19 11:39:00,75.9,23.3,27.76,ESE,116,2.7,3.6,14,0.00,,CLR,0.00,VWS V14.01,2013-03-19 18:39:00,
2013-03-19 11:44:00,75.9,23.3,27.73,ESE,110,3.6,5.8,14,0.00,,CLR,0.00,VWS V14.01,2013-03-19 18:44:00,
2013-03-19 11:49:00,76.3,23.6,27.73,East,79,0.0,3.1,14,0.00,,CLR,0.00,VWS V14.01,2013-03-19 18:49:00,
2013-03-19 11:54:00,76.5,23.8,27.73,North,8,0.0,0.0,14,0.00,,CLR,0.00,VWS V14.01,2013-03-19 18:54:00,
2013-03-19 11:59:00,76.3,23.6,27.73,NE,48,0.0,0.0,14,0.00,,CLR,0.00,VWS V14.01,2013-03-19 18:59:00,
2013-03-19 12:04:00,76.3,23.6,27.73,WNW,288,0.0,0.0,14,0.00,,CLR,0.00,VWS V14.01,2013-03-19 19:04:00,
2013-03-19 12:09:00,76.1,23.5,27.73,NNE,15,0.0,0.0,14,0.00,,CLR,0.00,VWS V14.01,2013-03-19 19:09:00,
2013-03-19 12:14:00,76.3,23.6,27.73,ENE,76,0.0,0.0,14,0.00,,CLR,0.00,VWS V14.01,2013-03-19 19:14:00,
2013-03-19 12:19:00,76.5,23.8,27.73,NNE,19,0.0,0.0,14,0.00,,CLR,0.00,VWS V14.01,2013-03-19 19:19:00,
2013-03-19 12:24:00,76.6,23.9,27.73,North,357,0.0,0.0,14,0.00,,CLR,0.00,VWS V14.01,2013-03-19 19:24:00,
2013-03-19 12:29:00,76.8,24.1,27.73,WSW,239,0.0,0.0,14,0.00,,CLR,0.00,VWS V14.01,2013-03-19 19:29:00,
2013-03-19 12:34:00,76.1,23.5,27.73,WNW,290,0.0,0.0,14,0.00,,CLR,0.00,VWS V14.01,2013-03-19 19:34:00,
2013-03-19 12:39:00,76.3,23.6,27.73,NNE,31,0.0,0.0,14,0.00,,CLR,0.00,VWS V14.01,2013-03-19 19:39:00,
2013-03-19 12:44:00,77.0,24.2,27.73,ENE,75,0.0,2.7,14,0.00,,CLR,0.00,VWS V14.01,2013-03-19 19:44:00,
2013-03-19 12:49:00,77.4,24.5,27.73,East,101,3.1,3.1,14,0.00,,CLR,0.00,VWS V14.01,2013-03-19 19:49:00,
2013-03-19 12:54:00,77.7,24.8,27.73,East,87,0.0,2.2,14,0.00,,CLR,0.00,VWS V14.01,2013-03-19 19:54:00,
2013-03-19 12:59:00,77.5,24.6,27.73,North,357,0.0,0.0,14,0.00,,CLR,0.00,VWS V14.01,2013-03-19 19:59:00,
2013-03-19 13:04:00,76.8,24.1,27.73,ESE,118,3.1,3.1,14,0.00,,CLR,0.00,VWS V14.01,2013-03-19 20:04:00,
2013-03-19 13:09:00,76.8,24.1,27.73,NNE,31,0.0,0.0,14,0.00,,CLR,0.00,VWS V14.01,2013-03-19 20:09:00,
2013-03-19 13:14:00,77.0,24.2,27.73,East,91,0.0,3.6,14,0.00,,CLR,0.00,VWS V14.01,2013-03-19 20:14:00,
2013-03-19 13:19:00,77.4,24.5,27.73,East,99,0.0,0.0,14,0.00,,CLR,0.00,VWS V14.01,2013-03-19 20:19:00,
2013-03-19 13:24:00,77.4,24.5,27.73,ENE,64,0.0,0.0,14,0.00,,CLR,0.00,VWS V14.01,2013-03-19 20:24:00,
2013-03-19 13:29:00,77.5,24.6,27.73,NW,306,0.0,0.0,14,0.00,,CLR,0.00,VWS V14.01,2013-03-19 20:29:00,
2013-03-19 13:34:00,77.0,24.2,27.73,NE,48,0.0,0.0,14,0.00,,CLR,0.00,VWS V14.01,2013-03-19 20:34:00,
2013-03-19 13:39:00,77.0,24.2,27.73,ENE,75,0.0,2.7,14,0.00,,CLR,0.00,VWS V14.01,2013-03-19 20:39:00,
2013-03-19 13:44:00,77.2,24.3,27.73,East,96,0.0,0.0,14,0.00,,CLR,0.00,VWS V14.01,2013-03-19 20:44:00,
2013-03-19 13:49:00,77.4,24.5,27.73,ESE,107,2.7,2.7,14,0.00,,CLR,0.00,VWS V14.01,2013-03-19 20:49:00,
2013-03-19 13:54:00,77.4,24.5,27.73,SE,125,0.0,2.7,14,0.00,,CLR,0.00,VWS V14.01,2013-03-19 20:54:00,
2013-03-19 13:59:00,77.2,24.3,27.73,East,80,0.0,2.2,14,0.00,,CLR,0.00,VWS V14.01,2013-03-19 20:59:00,
2013-03-19 14:04:00,77.2,24.3,27.73,ESE,109,2.7,4.0,14,0.00,,CLR,0.00,VWS V14.01,2013-03-19 21:04:00,
2013-03-19 14:09:00,77.2,24.3,27.73,ESE,104,0.0,2.2,14,0.00,,CLR,0.00,VWS V14.01,2013-03-19 21:09:00,
2013-03-19 14:14:00,77.2,24.3,27.73,East,98,0.0,4.0,14,0.00,,CLR,0.00,VWS V14.01,2013-03-19 21:14:00,
2013-03-19 14:19:00,77.2,24.3,27.73,SE,131,2.2,2.7,14,0.00,,CLR,0.00,VWS V14.01,2013-03-19 21:19:00,
2013-03-19 14:24:00,77.2,24.3,27.73,SE,137,0.0,2.2,14,0.00,,CLR,0.00,VWS V14.01,2013-03-19 21:24:00,
2013-03-19 14:29:00,77.5,24.6,27.70,East,86,0.0,0.0,14,0.00,,CLR,0.00,VWS V14.01,2013-03-19 21:29:00,
2013-03-19 14:34:00,77.4,24.5,27.70,SE,128,0.0,2.2,14,0.00,,CLR,0.00,VWS V14.01,2013-03-19 21:34:00,
2013-03-19 14:39:00,77.7,24.8,27.70,ENE,65,0.0,2.2,14,0.00,,CLR,0.00,VWS V14.01,2013-03-19 21:39:00,
2013-03-19 14:44:00,77.9,24.9,27.70,East,83,0.0,0.0,14,0.00,,CLR,0.00,VWS V14.01,2013-03-19 21:44:00,
2013-03-19 14:49:00,77.7,24.8,27.70,SSE,168,0.0,3.1,14,0.00,,CLR,0.00,VWS V14.01,2013-03-19 21:49:00,
2013-03-19 14:54:00,77.2,24.3,27.70,East,85,0.0,0.0,14,0.00,,CLR,0.00,VWS V14.01,2013-03-19 21:54:00,
2013-03-19 14:59:00,77.4,24.5,27.70,ENE,68,0.0,0.0,14,0.00,,CLR,0.00,VWS V14.01,2013-03-19 21:59:00,
2013-03-19 15:04:00,77.5,24.6,27.70,NE,47,0.0,0.0,14,0.00,,CLR,0.00,VWS V14.01,2013-03-19 22:04:00,
2013-03-19 15:14:00,77.2,24.3,27.70,ENE,62,0.0,0.0,14,0.00,,CLR,0.00,VWS V14.01,2013-03-19 22:14:00,
2013-03-19 15:19:00,77.2,24.3,27.70,NE,46,0.0,0.0,14,0.00,,CLR,0.00,VWS V14.01,2013-03-19 22:19:00,
2013-03-19 15:24:00,77.4,24.5,27.70,NNE,24,0.0,0.0,14,0.00,,CLR,0.00,VWS V14.01,2013-03-19 22:24:00,
2013-03-19 15:29:00,77.4,24.5,27.70,NE,40,0.0,0.0,14,0.00,,CLR,0.00,VWS V14.01,2013-03-19 22:29:00,
2013-03-19 15:34:00,77.4,24.5,27.70,SE,146,0.0,0.0,14,0.00,,CLR,0.00,VWS V14.01,2013-03-19 22:34:00,
2013-03-19 15:39:00,77.4,24.5,27.70,SE,128,0.0,0.0,14,0.00,,CLR,0.00,VWS V14.01,2013-03-19 22:39:00,
2013-03-19 15:44:00,77.2,24.3,27.70,SE,129,0.0,0.0,14,0.00,,CLR,0.00,VWS V14.01,2013-03-19 22:44:00,
2013-03-19 15:49:00,76.8,24.1,27.70,SW,218,0.0,0.0,14,0.00,,CLR,0.00,VWS V14.01,2013-03-19 22:49:00,
2013-03-19 15:54:00,77.0,24.2,27.70,SSE,148,0.0,0.0,14,0.00,,CLR,0.00,VWS V14.01,2013-03-19 22:54:00,
2013-03-19 15:59:00,77.2,24.3,27.70,SE,146,0.0,0.0,14,0.00,,CLR,0.00,VWS V14.01,2013-03-19 22:59:00,
2013-03-19 16:04:00,77.4,24.5,27.70,SSE,157,0.0,0.0,14,0.00,,CLR,0.00,VWS V14.01,2013-03-19 23:04:00,
2013-03-19 16:09:00,77.5,24.6,27.70,SSE,166,0.0,0.0,14,0.00,,CLR,0.00,VWS V14.01,2013-03-19 23:09:00,
2013-03-19 16:14:00,77.4,24.5,27.70,ESE,113,0.0,0.0,14,0.00,,CLR,0.00,VWS V14.01,2013-03-19 23:14:00,
2013-03-19 16:19:00,77.2,24.3,27.70,NE,37,0.0,0.0,14,0.00,,CLR,0.00,VWS V14.01,2013-03-19 23:19:00,
2013-03-19 16:24:00,77.2,24.3,27.70,North,353,0.0,0.0,14,0.00,,CLR,0.00,VWS V14.01,2013-03-19 23:24:00,
2013-03-19 16:29:00,77.0,24.2,27.70,NNE,33,0.0,0.0,14,0.00,,CLR,0.00,VWS V14.01,2013-03-19 23:29:00,
2013-03-19 16:34:00,77.0,24.2,27.70,ENE,57,0.0,0.0,14,0.00,,CLR,0.00,VWS V14.01,2013-03-19 23:34:00,
2013-03-19 16:39:00,77.0,24.2,27.70,SSE,159,0.0,0.0,14,0.00,,CLR,0.00,VWS V14.01,2013-03-19 23:39:00,
2013-03-19 16:44:00,77.0,24.2,27.67,SE,146,0.0,0.0,14,0.00,,CLR,0.00,VWS V14.01,2013-03-19 23:44:00,
2013-03-19 16:49:00,77.0,24.2,27.67,East,96,0.0,2.2,14,0.00,,CLR,0.00,VWS V14.01,2013-03-19 23:49:00,
2013-03-19 16:54:00,76.8,24.1,27.67,East,92,0.0,4.0,14,0.00,,CLR,0.00,VWS V14.01,2013-03-19 23:54:00,
2013-03-19 16:59:00,76.8,24.1,27.67,SE,128,0.0,0.0,14,0.00,,CLR,0.00,VWS V14.01,2013-03-19 23:59:00,
2013-03-19 17:04:00,76.6,23.9,27.67,NE,54,0.0,0.0,14,0.00,,CLR,0.00,VWS V14.01,2013-03-20 00:04:00,
2013-03-19 17:09:00,76.6,23.9,27.67,ESE,111,0.0,0.0,14,0.00,,CLR,0.00,VWS V14.01,2013-03-20 00:09:00,
2013-03-19 17:14:00,76.5,23.8,27.67,ESE,123,0.0,0.0,14,0.00,,CLR,0.00,VWS V14.01,2013-03-20 00:14:00,
2013-03-19 17:19:00,76.3,23.6,27.67,ENE,61,0.0,0.0,14,0.00,,CLR,0.00,VWS V14.01,2013-03-20 00:19:00,
2013-03-19 17:24:00,76.1,23.5,27.67,NNE,25,0.0,0.0,14,0.00,,CLR,0.00,VWS V14.01,2013-03-20 00:24:00,
2013-03-19 17:29:00,75.9,23.3,27.70,ESE,122,2.2,2.2,14,0.00,,CLR,0.00,VWS V14.01,2013-03-20 00:29:00,
2013-03-19 17:34:00,75.9,23.3,27.70,East,99,0.0,0.0,14,0.00,,CLR,0.00,VWS V14.01,2013-03-20 00:34:00,
2013-03-19 17:39:00,75.7,23.2,27.70,ESE,104,2.2,2.2,14,0.00,,CLR,0.00,VWS V14.01,2013-03-20 00:39:00,
2013-03-19 17:44:00,75.7,23.2,27.70,NE,44,0.0,0.0,14,0.00,,CLR,0.00,VWS V14.01,2013-03-20 00:44:00,
2013-03-19 17:49:00,75.7,23.2,27.70,ENE,60,0.0,0.0,14,0.00,,CLR,0.00,VWS V14.01,2013-03-20 00:49:00,
2013-03-19 17:54:00,75.6,23.1,27.70,ENE,77,0.0,0.0,14,0.00,,CLR,0.00,VWS V14.01,2013-03-20 00:54:00,
2013-03-19 17:59:00,75.6,23.1,27.70,NE,47,0.0,0.0,14,0.00,,CLR,0.00,VWS V14.01,2013-03-20 00:59:00,
2013-03-19 18:04:00,75.4,22.9,27.70,ENE,57,0.0,0.0,14,0.00,,CLR,0.00,VWS V14.01,2013-03-20 01:04:00,
2013-03-19 18:09:00,75.2,22.8,27.70,ENE,58,0.0,0.0,14,0.00,,CLR,0.00,VWS V14.01,2013-03-20 01:09:00,
2013-03-19 18:14:00,75.0,24.3,27.70,ENE,58,0.0,0.0,15,0.00,,CLR,0.00,VWS V14.01,2013-03-20 01:14:00,
2013-03-19 18:19:00,74.8,24.1,27.70,ENE,57,0.0,0.0,15,0.00,,CLR,0.00,VWS V14.01,2013-03-20 01:19:00,
2013-03-19 18:24:00,74.5,23.8,27.70,ENE,59,0.0,0.0,15,0.00,,CLR,0.00,VWS V14.01,2013-03-20 01:24:00,
2013-03-19 18:29:00,74.3,23.7,27.70,ENE,59,0.0,0.0,15,0.00,,CLR,0.00,VWS V14.01,2013-03-20 01:29:00,
2013-03-19 18:34:00,74.3,23.7,27.70,ENE,59,0.0,0.0,15,0.00,,CLR,0.00,VWS V14.01,2013-03-20 01:34:00,
2013-03-19 18:39:00,74.1,23.6,27.70,ENE,59,0.0,0.0,15,0.00,,CLR,0.00,VWS V14.01,2013-03-20 01:39:00,
2013-03-19 18:44:00,73.8,23.3,27.70,ENE,59,0.0,0.0,15,0.00,,CLR,0.00,VWS V14.01,2013-03-20 01:44:00,
2013-03-19 18:49:00,73.6,23.1,27.70,ENE,59,0.0,0.0,15,0.00,,CLR,0.00,VWS V14.01,2013-03-20 01:49:00,
2013-03-19 18:54:00,73.4,23.0,27.70,ENE,59,0.0,0.0,15,0.00,,CLR,0.00,VWS V14.01,2013-03-20 01:54:00,
2013-03-19 18:59:00,73.2,22.8,27.70,ENE,59,0.0,0.0,15,0.00,,CLR,0.00,VWS V14.01,2013-03-20 01:59:00,
2013-03-19 19:04:00,73.2,22.8,27.70,ENE,59,0.0,0.0,15,0.00,,CLR,0.00,VWS V14.01,2013-03-20 02:04:00,
2013-03-19 19:09:00,73.0,22.7,27.70,ENE,59,0.0,0.0,15,0.00,,CLR,0.00,VWS V14.01,2013-03-20 02:09:00,
2013-03-19 19:14:00,72.9,22.5,27.70,ENE,59,0.0,0.0,15,0.00,,CLR,0.00,VWS V14.01,2013-03-20 02:14:00,
2013-03-19 19:19:00,72.9,22.5,27.70,ENE,59,0.0,0.0,15,0.00,,CLR,0.00,VWS V14.01,2013-03-20 02:19:00,
2013-03-19 19:24:00,72.7,22.4,27.70,ENE,59,0.0,0.0,15,0.00,,CLR,0.00,VWS V14.01,2013-03-20 02:24:00,
2013-03-19 19:29:00,72.5,22.3,27.70,ENE,59,0.0,0.0,15,0.00,,CLR,0.00,VWS V14.01,2013-03-20 02:29:00,
2013-03-19 19:34:00,72.1,22.0,27.70,ENE,59,0.0,0.0,15,0.00,,CLR,0.00,VWS V14.01,2013-03-20 02:34:00,
2013-03-19 19:39:00,72.0,21.8,27.70,ENE,59,0.0,0.0,15,0.00,,CLR,0.00,VWS V14.01,2013-03-20 02:39:00,
2013-03-19 19:44:00,72.0,21.8,27.70,ENE,59,0.0,0.0,15,0.00,,CLR,0.00,VWS V14.01,2013-03-20 02:44:00,
2013-03-19 19:49:00,71.6,21.5,27.70,ENE,59,0.0,0.0,15,0.00,,CLR,0.00,VWS V14.01,2013-03-20 02:49:00,
2013-03-19 19:54:00,71.2,22.8,27.70,ENE,59,0.0,0.0,16,0.00,,CLR,0.00,VWS V14.01,2013-03-20 02:54:00,
2013-03-19 19:59:00,70.9,22.5,27.70,ENE,59,0.0,0.0,16,0.00,,CLR,0.00,VWS V14.01,2013-03-20 02:59:00,
2013-03-19 20:04:00,70.5,22.2,27.70,ENE,59,0.0,0.0,16,0.00,,CLR,0.00,VWS V14.01,2013-03-20 03:04:00,
2013-03-19 20:09:00,70.2,21.9,27.70,North,3,0.0,0.0,16,0.00,,CLR,0.00,VWS V14.01,2013-03-20 03:09:00,
2013-03-19 20:14:00,69.8,16.8,27.70,North,0,0.0,0.0,13,0.00,,CLR,0.00,VWS V14.01,2013-03-20 03:14:00,
2013-03-19 20:19:00,69.4,18.2,27.70,North,0,0.0,0.0,14,0.00,,CLR,0.00,VWS V14.01,2013-03-20 03:19:00,
2013-03-19 20:24:00,69.1,17.9,27.70,North,0,0.0,0.0,14,0.00,,CLR,0.00,VWS V14.01,2013-03-20 03:24:00,
2013-03-19 20:29:00,68.9,17.8,27.70,North,0,0.0,0.0,14,0.00,,CLR,0.00,VWS V14.01,2013-03-20 03:29:00,
2013-03-19 20:34:00,68.7,17.6,27.70,North,0,0.0,0.0,14,0.00,,CLR,0.00,VWS V14.01,2013-03-20 03:34:00,
2013-03-19 20:39:00,68.5,17.5,27.70,North,0,0.0,0.0,14,0.00,,CLR,0.00,VWS V14.01,2013-03-20 03:39:00,
2013-03-19 20:44:00,68.2,17.2,27.73,North,0,0.0,0.0,14,0.00,,CLR,0.00,VWS V14.01,2013-03-20 03:44:00,
2013-03-19 20:49:00,67.8,16.9,27.73,North,0,0.0,0.0,14,0.00,,CLR,0.00,VWS V14.01,2013-03-20 03:49:00,
2013-03-19 20:54:00,67.3,16.5,27.73,North,0,0.0,0.0,14,0.00,,CLR,0.00,VWS V14.01,2013-03-20 03:54:00,
2013-03-19 20:59:00,66.7,16.1,27.70,North,0,0.0,0.0,14,0.00,,CLR,0.00,VWS V14.01,2013-03-20 03:59:00,
2013-03-19 21:00:00,66.7,16.1,27.70,North,0,0.0,0.0,14,0.00,,CLR,0.00,VWS V14.01,2013-03-20 04:00:00,
2013-03-19 21:05:00,66.6,15.9,27.70,North,0,0.0,0.0,14,0.00,,CLR,0.00,VWS V14.01,2013-03-20 04:05:00,
2013-03-19 21:10:00,66.6,15.9,27.70,North,0,0.0,0.0,14,0.00,,CLR,0.00,VWS V14.01,2013-03-20 04:10:00,
2013-03-19 21:15:00,66.7,16.1,27.73,North,0,0.0,0.0,14,0.00,,CLR,0.00,VWS V14.01,2013-03-20 04:15:00,
2013-03-19 21:20:00,66.6,15.9,27.73,North,0,0.0,0.0,14,0.00,,CLR,0.00,VWS V14.01,2013-03-20 04:20:00,
2013-03-19 21:25:00,66.2,15.6,27.73,NNW,344,0.0,0.0,14,0.00,,CLR,0.00,VWS V14.01,2013-03-20 04:25:00,
2013-03-19 21:30:00,65.8,15.3,27.73,NNW,344,0.0,0.0,14,0.00,,CLR,0.00,VWS V14.01,2013-03-20 04:30:00,
2013-03-19 21:35:00,65.5,15.1,27.73,NNW,344,0.0,0.0,14,0.00,,CLR,0.00,VWS V14.01,2013-03-20 04:35:00,
2013-03-19 21:40:00,64.9,14.6,27.73,NNW,344,0.0,0.0,14,0.00,,CLR,0.00,VWS V14.01,2013-03-20 04:40:00,
2013-03-19 21:45:00,64.8,14.5,27.73,NNW,344,0.0,0.0,14,0.00,,CLR,0.00,VWS V14.01,2013-03-20 04:45:00,
2013-03-19 21:50:00,64.6,14.3,27.73,NNW,344,0.0,0.0,14,0.00,,CLR,0.00,VWS V14.01,2013-03-20 04:50:00,
2013-03-19 21:55:00,64.2,15.6,27.73,NNW,344,0.0,0.0,15,0.00,,CLR,0.00,VWS V14.01,2013-03-20 04:55:00,
2013-03-19 22:00:00,63.9,15.3,27.73,NNW,344,0.0,0.0,15,0.00,,CLR,0.00,VWS V14.01,2013-03-20 05:00:00,
2013-03-19 22:05:00,63.3,14.9,27.73,NNW,344,0.0,0.0,15,0.00,,CLR,0.00,VWS V14.01,2013-03-20 05:05:00,
2013-03-19 22:10:00,63.0,14.6,27.73,WSW,250,0.0,0.0,15,0.00,,CLR,0.00,VWS V14.01,2013-03-20 05:10:00,
2013-03-19 22:15:00,63.1,14.8,27.73,WSW,249,0.0,0.0,15,0.00,,CLR,0.00,VWS V14.01,2013-03-20 05:15:00,
2013-03-19 22:20:00,63.3,14.9,27.73,WSW,249,0.0,0.0,15,0.00,,CLR,0.00,VWS V14.01,2013-03-20 05:20:00,
2013-03-19 22:25:00,63.3,14.9,27.73,WSW,249,0.0,0.0,15,0.00,,CLR,0.00,VWS V14.01,2013-03-20 05:25:00,
2013-03-19 22:30:00,63.1,14.8,27.73,WSW,249,0.0,0.0,15,0.00,,CLR,0.00,VWS V14.01,2013-03-20 05:30:00,
2013-03-19 22:35:00,63.1,14.8,27.73,WSW,249,0.0,0.0,15,0.00,,CLR,0.00,VWS V14.01,2013-03-20 05:35:00,
2013-03-19 22:40:00,63.1,14.8,27.73,WSW,257,0.0,0.0,15,0.00,,CLR,0.00,VWS V14.01,2013-03-20 05:40:00,
2013-03-19 22:45:00,63.0,14.6,27.73,WSW,257,0.0,0.0,15,0.00,,CLR,0.00,VWS V14.01,2013-03-20 05:45:00,
2013-03-19 22:50:00,62.8,14.5,27.73,WSW,257,0.0,0.0,15,0.00,,CLR,0.00,VWS V14.01,2013-03-20 05:50:00,
2013-03-19 22:55:00,62.6,14.3,27.73,WSW,257,0.0,0.0,15,0.00,,CLR,0.00,VWS V14.01,2013-03-20 05:55:00,
2013-03-19 23:00:00,62.6,14.3,27.73,WSW,257,0.0,0.0,15,0.00,,CLR,0.00,VWS V14.01,2013-03-20 06:00:00,
2013-03-19 23:05:00,62.6,14.3,27.73,WSW,257,0.0,0.0,15,0.00,,CLR,0.00,VWS V14.01,2013-03-20 06:05:00,
2013-03-19 23:10:00,62.8,14.5,27.73,WSW,257,0.0,0.0,15,0.00,,CLR,0.00,VWS V14.01,2013-03-20 06:10:00,
2013-03-19 23:15:00,63.0,14.6,27.73,WSW,257,0.0,0.0,15,0.00,,CLR,0.00,VWS V14.01,2013-03-20 06:15:00,
2013-03-19 23:20:00,62.8,14.5,27.73,WSW,257,0.0,0.0,15,0.00,,CLR,0.00,VWS V14.01,2013-03-20 06:20:00,
2013-03-19 23:25:00,62.6,14.3,27.73,WSW,257,0.0,0.0,15,0.00,,CLR,0.00,VWS V14.01,2013-03-20 06:25:00,
2013-03-19 23:30:00,62.2,14.0,27.73,WSW,257,0.0,0.0,15,0.00,,CLR,0.00,VWS V14.01,2013-03-20 06:30:00,
2013-03-19 23:35:00,61.9,13.8,27.73,WSW,257,0.0,0.0,15,0.00,,CLR,0.00,VWS V14.01,2013-03-20 06:35:00,
2013-03-19 23:40:00,61.5,13.5,27.73,WSW,257,0.0,0.0,15,0.00,,CLR,0.00,VWS V14.01,2013-03-20 06:40:00,
2013-03-19 23:45:00,61.3,13.3,27.73,WSW,257,0.0,0.0,15,0.00,,CLR,0.00,VWS V14.01,2013-03-20 06:45:00,
2013-03-19 23:50:00,61.0,13.0,27.73,WSW,257,0.0,0.0,15,0.00,,CLR,0.00,VWS V14.01,2013-03-20 06:50:00,
2013-03-19 23:55:00,60.6,14.2,27.73,WSW,257,0.0,0.0,16,0.00,,CLR,0.00,VWS V14.01,2013-03-20 06:55:00,